Location: K�ln
(50.9455°N, 6.9544°E)
Time: 00:12:26
(UTC+01:00)

ISS - Pass Details

Date: 08 January 2018
Orbit: 402 x 407 km, 51.6° (Epoch: 20 January)

Event Time Altitude Azimuth Distance (km) Brightness Sun altitude
Exits shadow 06:39:05 51° 282° (WNW) 519 -3.7 -17.1°
Maximum altitude 06:39:49 89° 357° (N) 412 -3.9 -16.9°
Drops below altitude 10° 06:43:07 10° 101° (ESE) 1,468 0.4 -16.4°
Sets 06:45:12 0° 102° (ESE) 2,328 1.9 -16.1°
